User: anonymous   Login
Location: Elstree
(51.6403°N, 0.2969°W)
Time: 12:27:49
(UTC+00:00)
Language:

Cosmos 2322 - Orbit

View from above orbital plane
View from above orbital plane
View from above satellite
View from above satellite

Ground track
Ground track

The orbit data is extracted from the following two-line orbital elements,

1 23704U 95058A   21137.83446348 -.00000268  00000-0 -11740-3 0  9991
2 23704  70.9855 285.0574 0006806  87.4398 272.7503 14.13435118317785
Epoch (UTC): 17 May 2021 20:01:37
Eccentricity: 0.0006806
inclination: 70.9855°
perigee height: 843 km
apogee height: 852 km
right ascension of ascending node: 285.0574°
argument of perigee: 87.4398°
revolutions per day: 14.13435118
mean anomaly at epoch: 272.7503°
orbit number at epoch: 31778

The dashed part of the orbit path shows where the satellite is in the earth's shadow,  

DLR